KD5JEO Weather Reports


time (UTC)temp
F
wind
direction
speed
knots
gust
knots
rain 1hr
in
rain 24hr
in
rain mn
in
humidity
%
barometer
mb
20260502230043 65 277 6.1 10.4 0.00 0.00 0.00 32 1010.3
20260502225532 65 263 2.6 13.0 0.00 0.00 0.00 33 1010.3
20260502225032 65 313 7.0 13.0 0.00 0.00 0.00 32 1010.4
20260502224542 65 275 2.6 12.2 0.00 0.00 0.00 31 1010.4
20260502224031 65 255 7.0 13.9 0.00 0.00 0.00 31 1010.5
20260502223533 64 220 6.1 14.8 0.00 0.00 0.00 31 1010.7
20260502223039 64 209 8.7 14.8 0.00 0.00 0.00 32 1010.6
20260502222532 64 252 7.0 16.5 0.00 0.00 0.00 32 1010.6
20260502222031 64 204 7.8 16.5 0.00 0.00 0.00 32 1010.7
20260502221542 64 244 6.1 11.3 0.00 0.00 0.00 32 1010.8
20260502221031 64 181 6.1 11.3 0.00 0.00 0.00 31 1010.9
20260502220532 64 287 6.1 13.0 0.00 0.00 0.00 32 1010.9
20260502220052 64 273 3.5 14.8 0.00 0.00 0.00 34 1011.0
20260502215531 64 243 7.8 17.4 0.00 0.00 0.00 32 1011.1
20260502215030 64 223 9.6 17.4 0.00 0.00 0.00 32 1011.1
20260502214536 65 265 9.6 15.6 0.00 0.00 0.00 31 1011.1
20260502214032 66 221 7.0 13.0 0.00 0.00 0.00 31 1011.2
20260502213532 66 252 7.8 14.8 0.00 0.00 0.00 31 1011.2
20260502213041 66 223 5.2 15.6 0.00 0.00 0.00 30 1011.3
20260502212533 65 277 7.8 16.5 0.00 0.00 0.00 31 1011.4
20260502212032 65 238 9.6 16.5 0.00 0.00 0.00 29 1011.5
20260502211542 65 203 7.8 16.5 0.00 0.00 0.00 31 1011.6
20260502211031 65 273 9.6 16.5 0.00 0.00 0.00 30 1011.8
20260502210531 65 223 8.7 14.8 0.00 0.00 0.00 30 1011.8
20260502210041 64 249 8.7 15.6 0.00 0.00 0.00 32 1011.9
20260502205531 64 254 7.0 15.6 0.00 0.00 0.00 31 1012.0
20260502205029 64 269 7.0 14.8 0.00 0.00 0.00 31 1012.1
20260502204558 64 244 5.2 14.8 0.00 0.00 0.00 34 1012.2
20260502204033 64 262 7.0 15.6 0.00 0.00 0.00 30 1012.4
20260502203532 64 217 6.1 15.6 0.00 0.00 0.00 32 1012.4
20260502203047 65 217 9.6 14.8 0.00 0.00 0.00 30 1012.5
20260502202531 64 238 7.8 15.6 0.00 0.00 0.00 34 1012.7
20260502202032 64 190 9.6 15.6 0.00 0.00 0.00 32 1012.8
20260502201545 64 254 7.8 13.9 0.00 0.00 0.00 32 1013.0
20260502201032 64 313 6.1 13.0 0.00 0.00 0.00 31 1013.0
20260502200532 63 258 7.0 13.9 0.00 0.00 0.00 32 1013.2
20260502200041 63 257 7.8 14.8 0.00 0.00 0.00 33 1013.2
20260502195534 62 271 8.7 14.8 0.00 0.00 0.00 33 1013.3
20260502195029 62 238 7.0 13.0 0.00 0.00 0.00 32 1013.4
20260502194548 62 200 7.0 14.8 0.00 0.00 0.00 33 1013.4
20260502194031 62 257 5.2 14.8 0.00 0.00 0.00 33 1013.5
20260502193531 62 234 5.2 13.0 0.00 0.00 0.00 35 1013.6
20260502193039 61 218 6.1 11.3 0.00 0.00 0.00 33 1013.8
20260502192532 62 197 4.3 13.0 0.00 0.00 0.00 32 1013.8
20260502192033 62 174 7.0 13.0 0.00 0.00 0.00 33 1014.0
20260502191542 61 234 4.3 15.6 0.00 0.00 0.00 32 1014.0
20260502191035 61 267 7.8 15.6 0.00 0.00 0.00 33 1014.2
20260502190533 61 235 10.4 18.2 0.00 0.00 0.00 34 1014.2
20260502190037 61 234 6.1 18.2 0.00 0.00 0.00 33 1014.3
20260502185531 60 180 7.0 18.2 0.00 0.00 0.00 33 1014.2
20260502185033 60 209 8.7 15.6 0.00 0.00 0.00 32 1014.4
20260502184543 60 299 6.1 16.5 0.00 0.00 0.00 36 1014.6
20260502184031 60 237 8.7 16.5 0.00 0.00 0.00 35 1014.9
20260502183534 60 261 6.1 13.0 0.00 0.00 0.00 35 1015.0
20260502183048 60 232 7.8 13.0 0.00 0.00 0.00 35 1015.0
20260502182535 60 306 8.7 13.0 0.00 0.00 0.00 34 1015.1
20260502182032 59 267 2.6 10.4 0.00 0.00 0.00 33 1015.1
20260502181538 59 316 5.2 13.0 0.00 0.00 0.00 38 1015.2
20260502181033 60 322 7.8 13.0 0.00 0.00 0.00 35 1015.3
20260502180533 59 222 3.5 9.6 0.00 0.00 0.00 37 1015.3
20260502164033 56 264 6.1 12.2 0.00 0.00 0.00 37 1016.6
20260502163533 56 271 5.2 18.2 0.00 0.00 0.00 38 1016.8
20260502163103 56 272 10.4 18.2 0.00 0.00 0.00 37 1016.8
20260502162533 56 233 8.7 15.6 0.00 0.00 0.00 37 1016.8
20260502162031 55 286 8.7 15.6 0.00 0.00 0.00 37 1016.9
20260502161551 55 230 7.8 15.6 0.00 0.00 0.00 37 1017.0
20260502161032 56 247 7.0 14.8 0.00 0.00 0.00 38 1017.1
20260502160538 56 281 8.7 14.8 0.00 0.00 0.00 38 1017.1
20260502152035 53 204 7.0 12.2 0.00 0.00 0.00 40 1017.4
20260502151539 53 250 6.1 13.0 0.00 0.00 0.00 43 1017.5
20260502151033 52 301 5.2 13.0 0.00 0.00 0.00 45 1017.5
20260502150530 52 277 8.7 13.0 0.00 0.00 0.00 43 1017.5
20260502130529 45 267 4.3 8.7 0.00 0.00 0.00 53 1017.8
20260502123530 44 9 4.3 8.7 0.00 0.00 0.00 55 1017.7
20260502123045 43 299 3.5 8.7 0.00 0.00 0.00 55 1017.7
20260502122532 42 300 4.3 8.7 0.00 0.00 0.00 56 1017.6
20260502122032 42 288 2.6 7.8 0.00 0.00 0.00 58 1017.5
20260502121539 41 290 4.3 7.0 0.00 0.00 0.00 59 1017.5
20260502121031 41 258 3.5 7.8 0.00 0.00 0.00 59 1017.6
20260502120530 40 261 3.5 9.6 0.00 0.00 0.00 60 1017.6
20260502115533 39 252 3.5 7.0 0.00 0.00 0.00 61 1017.5
20260502115030 39 288 3.5 7.8 0.00 0.00 0.00 61 1017.5
20260502114546 39 300 3.5 7.8 0.00 0.00 0.00 61 1017.5
20260502114033 39 276 2.6 7.0 0.00 0.00 0.00 62 1017.4
20260502113531 38 279 2.6 7.0 0.00 0.00 0.00 62 1017.3
20260502113039 38 273 3.5 7.0 0.00 0.00 0.00 63 1017.3
20260502112532 38 291 2.6 7.0 0.00 0.00 0.00 62 1017.3
20260502112034 38 252 2.6 6.1 0.00 0.00 0.00 62 1017.3
20260502111547 38 265 1.7 6.1 0.00 0.00 0.00 62 1017.2
20260502111030 38 290 2.6 6.1 0.00 0.00 0.00 63 1017.3
20260502110532 38 271 1.7 5.2 0.00 0.00 0.00 62 1017.3
20260502110042 38 301 2.6 7.0 0.00 0.00 0.00 62 1017.4
20260502105532 38 267 1.7 7.0 0.00 0.00 0.00 61 1017.3
20260502105030 38 302 2.6 6.1 0.00 0.00 0.00 61 1017.4
20260502104549 38 276 2.6 6.1 0.00 0.00 0.00 60 1017.4
20260502104031 38 262 1.7 6.1 0.00 0.00 0.00 60 1017.4
20260502103531 39 259 2.6 7.0 0.00 0.00 0.00 60 1017.4
20260502103039 39 271 2.6 7.0 0.00 0.00 0.00 59 1017.3
20260502102532 39 259 3.5 7.0 0.00 0.00 0.00 59 1017.3
20260502102031 39 276 2.6 7.0 0.00 0.00 0.00 58 1017.4
20260502101537 39 295 2.6 6.1 0.00 0.00 0.00 57 1017.4
20260502101033 40 277 2.6 6.1 0.00 0.00 0.00 57 1017.4
20260502100530 40 279 2.6 7.0 0.00 0.00 0.00 55 1017.4
20260502091031 41 248 4.3 8.7 0.00 0.00 0.00 55 1017.3
20260502090530 41 257 4.3 8.7 0.00 0.00 0.00 55 1017.3
20260502071031 40 267 1.7 6.1 0.00 0.00 0.00 54 1017.5
20260502070530 40 259 1.7 6.1 0.00 0.00 0.00 54 1017.5
20260502070049 40 261 2.6 7.0 0.00 0.00 0.00 55 1017.5
20260502065533 40 248 2.6 7.0 0.00 0.00 0.00 55 1017.6
20260502065031 40 252 3.5 7.0 0.00 0.00 0.00 54 1017.7
20260502064545 40 271 2.6 6.1 0.00 0.00 0.00 54 1017.6
20260502064030 40 244 2.6 7.0 0.00 0.00 0.00 54 1017.7
20260502063532 40 258 2.6 7.0 0.00 0.00 0.00 54 1017.8
20260502063036 40 263 2.6 6.1 0.00 0.00 0.00 55 1017.8
20260502062533 40 269 2.6 6.1 0.00 0.00 0.00 55 1017.8
20260502062031 39 273 2.6 6.1 0.00 0.00 0.00 55 1017.8
20260502061543 39 247 2.6 5.2 0.00 0.00 0.00 55 1017.7
20260502061031 39 275 1.7 5.2 0.00 0.00 0.00 56 1017.8
20260502060532 39 269 1.7 3.5 0.00 0.00 0.00 56 1017.8
20260502060040 39 284 1.7 5.2 0.00 0.00 0.00 55 1017.8
20260502055533 39 265 1.7 5.2 0.00 0.00 0.00 55 1017.8
20260502055030 40 277 1.7 7.8 0.00 0.00 0.00 54 1017.8
20260502054555 40 273 1.7 7.8 0.00 0.00 0.00 54 1017.8
20260502054032 40 267 2.6 5.2 0.00 0.00 0.00 54 1017.9
20260502053532 40 272 1.7 5.2 0.00 0.00 0.00 54 1017.8
20260502053038 40 259 1.7 5.2 0.00 0.00 0.00 54 1017.8
20260502052532 40 274 2.6 5.2 0.00 0.00 0.00 54 1017.9
20260502052031 40 273 2.6 5.2 0.00 0.00 0.00 53 1017.8
20260502051546 40 265 2.6 5.2 0.00 0.00 0.00 54 1017.8
20260502051032 40 285 2.6 5.2 0.00 0.00 0.00 54 1017.8
20260502050531 40 267 1.7 5.2 0.00 0.00 0.00 54 1017.8
20260502050043 40 281 1.7 5.2 0.00 0.00 0.00 54 1017.9
20260502045534 40 278 2.6 5.2 0.00 0.00 0.00 54 1017.8
20260502045033 40 276 2.6 5.2 0.00 0.00 0.00 54 1017.8
20260502044544 40 275 2.6 5.2 0.00 0.00 0.00 54 1017.8
20260502044032 40 288 2.6 5.2 0.00 0.00 0.00 56 1017.7
20260502043532 40 277 1.7 5.2 0.00 0.00 0.00 56 1017.7
20260502043044 39 271 1.7 3.5 0.00 0.00 0.00 57 1017.8
20260502042532 39 270 1.7 3.5 0.00 0.00 0.00 58 1017.8
20260502042032 39 276 1.7 3.5 0.00 0.00 0.00 59 1017.8
20260502041546 39 273 1.7 3.5 0.00 0.00 0.00 59 1017.8
20260502041032 39 272 1.7 3.5 0.00 0.00 0.00 60 1017.7
20260502040529 39 271 1.7 3.5 0.00 0.00 0.00 61 1017.8
20260502040038 38 260 1.7 3.5 0.00 0.00 0.00 62 1017.8
20260502035532 38 273 1.7 3.5 0.00 0.00 0.00 63 1017.8
20260502035032 38 275 0.9 2.6 0.00 0.00 0.00 62 1017.8
20260502034543 39 275 0.0 1.7 0.00 0.00 0.00 61 1017.9
20260502034032 39 263 0.9 2.6 0.00 0.00 0.00 61 1017.9
20260502033531 39 263 0.9 2.6 0.00 0.00 0.00 59 1017.9
20260502033042 40 263 0.9 2.6 0.00 0.00 0.00 58 1017.9
20260502032531 40 266 0.9 1.7 0.00 0.00 0.00 58 1018.0
20260502032032 41 265 0.9 1.7 0.00 0.00 0.00 57 1018.0
20260502031537 41 265 0.9 1.7 0.00 0.00 0.00 57 1017.9
20260502031033 41 265 0.9 2.6 0.00 0.00 0.00 55 1018.0
20260502030530 42 265 0.9 2.6 0.00 0.00 0.00 54 1017.9
20260502030040 42 266 0.9 1.7 0.00 0.00 0.00 53 1017.9
20260502025532 42 266 0.9 1.7 0.00 0.00 0.00 52 1017.9
20260502025029 43 266 0.9 1.7 0.00 0.00 0.00 52 1018.0
20260502024540 43 266 0.9 2.6 0.00 0.00 0.00 51 1017.9
20260502024032 43 266 0.9 3.5 0.00 0.00 0.00 50 1018.0
20260502023532 43 266 1.7 3.5 0.00 0.00 0.00 51 1017.9
20260502023039 43 262 0.9 2.6 0.00 0.00 0.00 49 1017.9
20260502022532 43 266 0.9 2.6 0.00 0.00 0.00 49 1017.9
20260502022030 44 266 0.9 1.7 0.00 0.00 0.00 48 1017.8
20260502021545 44 253 0.0 2.6 0.00 0.00 0.00 47 1017.8
20260502021031 45 253 0.9 2.6 0.00 0.00 0.00 46 1017.8
20260502020532 45 292 0.9 2.6 0.00 0.00 0.00 45 1017.7
20260502020043 46 302 0.0 1.7 0.00 0.00 0.00 44 1017.7
20260502015533 46 256 0.9 2.6 0.00 0.00 0.00 43 1017.6
20260502015031 46 256 0.9 2.6 0.00 0.00 0.00 43 1017.5
20260502014551 47 266 0.9 2.6 0.00 0.00 0.00 42 1017.4
20260502014032 47 0 0.0 0.9 0.00 0.00 0.00 41 1017.4
20260502013532 47 331 0.0 0.9 0.00 0.00 0.00 41 1017.3
20260502013035 47 331 0.0 0.9 0.00 0.00 0.00 39 1017.2
20260502012532 47 0 0.0 0.0 0.00 0.00 0.00 39 1017.2
20260502012031 47 0 0.0 0.9 0.00 0.00 0.00 39 1017.2
20260502011547 49 0 0.0 3.5 0.00 0.00 0.00 37 1017.2
20260502011032 49 0 0.0 5.2 0.00 0.00 0.00 35 1017.2
20260502010532 49 9 1.7 5.2 0.00 0.00 0.00 35 1017.2
20260502010040 50 306 1.7 7.8 0.00 0.00 0.00 34 1017.1
20260502005531 50 347 3.5 8.7 0.00 0.00 0.00 34 1017.1
20260502005032 50 334 3.5 8.7 0.00 0.00 0.00 33 1017.1
20260502004548 50 315 3.5 8.7 0.00 0.00 0.00 34 1017.1
20260502004032 50 324 1.7 8.7 0.00 0.00 0.00 33 1017.2
20260502003531 51 339 5.2 9.6 0.00 0.00 0.00 33 1017.2
20260502003037 51 352 4.3 13.0 0.00 0.00 0.00 32 1017.1
20260502002534 51 319 6.1 13.0 0.00 0.00 0.00 33 1017.1
20260502002034 52 95 3.5 10.4 0.00 0.00 0.00 32 1017.1
20260502001543 51 343 0.9 7.8 0.00 0.00 0.00 31 1017.1
20260502001031 51 346 3.5 7.8 0.00 0.00 0.00 32 1017.0
20260502000531 51 5 2.6 7.8 0.00 0.00 0.00 32 1017.1
20260502000052 51 360 0.9 7.8 0.00 0.00 0.00 33 1017.0
20260501235531 51 269 1.7 7.8 0.00 0.00 0.00 32 1017.0
20260501235032 51 266 3.5 7.8 0.00 0.00 0.00 32 1017.0
20260501234541 51 352 3.5 7.8 0.00 0.00 0.00 34 1017.0
20260501234031 51 262 2.6 7.8 0.00 0.00 0.00 32 1016.9
20260501233534 51 282 3.5 7.8 0.00 0.00 0.00 33 1017.1
20260501233038 51 330 2.6 5.2 0.00 0.00 0.00 34 1017.0
20260501232531 51 350 0.9 6.1 0.00 0.00 0.00 35 1017.0
20260501232031 51 5 2.6 7.0 0.00 0.00 0.00 35 1017.0
20260501231534 51 322 2.6 7.0 0.00 0.00 0.00 34 1017.0
20260501231032 51 344 1.7 7.8 0.00 0.00 0.00 35 1017.1
20260501230532 51 343 3.5 9.6 0.00 0.00 0.00 33 1017.0